FIN7Z EKCH-EFHK

Flight info

Callsign FIN7Z
Flight time 1h 13m
Altitude 37000
Route KEMAX N851 ROXEN DCT RIRIP Y364 LAKUT
Aircraft A321/M-SDE1E2E3FGIJ1M1RWXYZ/LB1

Departure

Time 2026-05-04 07:06
Airport Copenhagen Kastrup Airport (EKCH)

Arrival

Time 2026-05-04 08:19
Airport Helsinki Vantaa Airport (EFHK)
Time Latitude Longitude Altitude Speed Heading
2026-05-04 06:25 55.62810 12.64222 17 ft 0 kts 123°
2026-05-04 06:57 55.62818 12.64000 19 ft 4 kts 99°
2026-05-04 06:58 55.62824 12.63956 19 ft 2 kts 103°
2026-05-04 06:58 55.62830 12.63916 17 ft 4 kts 103°
2026-05-04 06:58 55.62836 12.63876 21 ft 1 kts 103°
2026-05-04 07:01 55.62817 12.63941 20 ft 9 kts 135°
2026-05-04 07:01 55.62775 12.63952 17 ft 5 kts 193°
2026-05-04 07:02 55.62716 12.63892 17 ft 13 kts 212°
2026-05-04 07:02 55.62648 12.63875 17 ft 8 kts 146°
2026-05-04 07:02 55.62601 12.63988 17 ft 15 kts 123°
2026-05-04 07:02 55.62552 12.64121 17 ft 11 kts 123°
2026-05-04 07:03 55.62511 12.64231 17 ft 13 kts 123°
2026-05-04 07:03 55.62458 12.64359 17 ft 11 kts 127°
2026-05-04 07:03 55.62411 12.64445 17 ft 10 kts 157°
2026-05-04 07:03 55.62311 12.64413 19 ft 18 kts 195°
2026-05-04 07:04 55.62197 12.64345 15 ft 17 kts 205°
2026-05-04 07:04 55.62104 12.64267 18 ft 13 kts 205°
2026-05-04 07:04 55.62027 12.64202 17 ft 12 kts 205°
2026-05-04 07:04 55.61924 12.64114 17 ft 17 kts 205°
2026-05-04 07:05 55.61825 12.64069 17 ft 14 kts 181°
2026-05-04 07:05 55.61735 12.64082 20 ft 12 kts 175°
2026-05-04 07:05 55.61664 12.64091 20 ft 8 kts 179°
2026-05-04 07:05 55.61608 12.64048 23 ft 17 kts 218°
2026-05-04 07:06 55.60782 12.62763 19 ft 144 kts 221°
2026-05-04 07:06 55.59986 12.61538 497 ft 153 kts 226°
2026-05-04 07:06 55.59179 12.60310 1218 ft 157 kts 227°
2026-05-04 07:07 55.58296 12.58930 1592 ft 181 kts 226°
2026-05-04 07:08 55.47511 12.55063 6673 ft 294 kts 135°
2026-05-04 07:09 55.46444 12.58170 7517 ft 303 kts 109°
2026-05-04 07:09 55.46130 12.61859 8350 ft 309 kts 85°
2026-05-04 07:09 55.46696 12.65512 9160 ft 312 kts 59°
2026-05-04 07:09 55.48056 12.68436 9927 ft 309 kts 33°
2026-05-04 07:10 55.49873 12.70677 10263 ft 330 kts 28°
2026-05-04 07:10 55.51879 12.72924 10590 ft 350 kts 28°
2026-05-04 07:12 55.66926 12.90607 15505 ft 390 kts 30°
2026-05-04 07:12 55.69198 12.93293 16155 ft 395 kts 30°
2026-05-04 07:12 55.71498 12.96012 16806 ft 400 kts 30°
2026-05-04 07:12 55.73826 12.98766 17454 ft 405 kts 30°
2026-05-04 07:13 55.76193 13.01575 17921 ft 410 kts 30°
2026-05-04 07:13 55.78573 13.04407 18157 ft 412 kts 30°
2026-05-04 07:13 55.80970 13.07260 18397 ft 414 kts 30°
2026-05-04 07:14 55.90618 13.18801 20005 ft 425 kts 30°
2026-05-04 07:14 55.93088 13.21756 20547 ft 429 kts 30°
2026-05-04 07:15 55.95576 13.24735 21068 ft 432 kts 30°
2026-05-04 07:15 55.98080 13.27738 21579 ft 436 kts 30°
2026-05-04 07:15 56.00606 13.30777 22080 ft 439 kts 31°
2026-05-04 07:15 56.03146 13.33846 22582 ft 442 kts 31°
2026-05-04 07:16 56.05707 13.36946 23080 ft 446 kts 31°
2026-05-04 07:16 56.08282 13.40069 23547 ft 449 kts 31°
2026-05-04 07:16 56.10878 13.43223 23977 ft 452 kts 31°
2026-05-04 07:16 56.13488 13.46407 24445 ft 455 kts 32°
2026-05-04 07:17 56.16091 13.49687 24883 ft 459 kts 33°
2026-05-04 07:17 56.18683 13.53062 25329 ft 462 kts 33°
2026-05-04 07:17 56.21277 13.56508 25774 ft 465 kts 34°
2026-05-04 07:17 56.23878 13.59986 26215 ft 468 kts 34°
2026-05-04 07:18 56.26501 13.63486 26637 ft 470 kts 34°
2026-05-04 07:18 56.29144 13.66998 27068 ft 473 kts 34°
2026-05-04 07:18 56.31800 13.70513 27473 ft 476 kts 34°
2026-05-04 07:18 56.34484 13.74056 27902 ft 479 kts 34°
2026-05-04 07:19 56.37183 13.77616 28319 ft 482 kts 34°
2026-05-04 07:19 56.39895 13.81202 28702 ft 485 kts 34°
2026-05-04 07:19 56.42621 13.84823 29110 ft 488 kts 34°
2026-05-04 07:19 56.45363 13.88478 29531 ft 491 kts 34°
2026-05-04 07:20 56.48121 13.92157 29913 ft 494 kts 34°
2026-05-04 07:20 56.50900 13.95871 30230 ft 497 kts 34°
2026-05-04 07:20 56.53685 13.99605 30539 ft 499 kts 34°
2026-05-04 07:20 56.56418 14.03383 30795 ft 502 kts 39°
2026-05-04 07:22 56.74092 14.34164 33620 ft 499 kts 42°
2026-05-04 07:22 56.76585 14.38549 33998 ft 498 kts 42°
2026-05-04 07:23 56.79072 14.42934 34347 ft 497 kts 42°
2026-05-04 07:23 56.81555 14.47328 34717 ft 496 kts 42°
2026-05-04 07:23 56.84025 14.51712 35066 ft 494 kts 42°
2026-05-04 07:23 56.86486 14.56089 35394 ft 493 kts 42°
2026-05-04 07:24 56.88942 14.60460 35716 ft 492 kts 42°
2026-05-04 07:24 56.91395 14.64833 36030 ft 492 kts 42°
2026-05-04 07:24 56.93838 14.69198 36341 ft 491 kts 42°
2026-05-04 07:24 56.96283 14.73573 36535 ft 491 kts 42°
2026-05-04 07:25 56.98724 14.77943 36724 ft 490 kts 42°
2026-05-04 07:26 57.15609 15.08456 36783 ft 485 kts 43°
2026-05-04 07:27 57.20412 15.17198 36790 ft 485 kts 43°
2026-05-04 07:27 57.25184 15.25918 36773 ft 486 kts 43°
2026-05-04 07:28 57.29980 15.34714 36801 ft 486 kts 43°
2026-05-04 07:28 57.34770 15.43554 36789 ft 486 kts 43°
2026-05-04 07:29 57.39554 15.52420 36781 ft 486 kts 43°
2026-05-04 07:29 57.44333 15.61296 36777 ft 486 kts 43°
2026-05-04 07:30 57.49108 15.70209 36780 ft 486 kts 43°
2026-05-04 07:30 57.53889 15.79163 36790 ft 487 kts 43°
2026-05-04 07:31 57.58655 15.88146 36762 ft 487 kts 43°
2026-05-04 07:33 57.77665 16.24210 36768 ft 487 kts 44°
2026-05-04 07:33 57.82399 16.33288 36767 ft 487 kts 44°
2026-05-04 07:34 57.87089 16.42329 36769 ft 486 kts 44°
2026-05-04 07:34 57.91803 16.51441 36769 ft 486 kts 44°
2026-05-04 07:35 57.96524 16.60592 36789 ft 487 kts 44°
2026-05-04 07:35 58.01241 16.69776 36772 ft 487 kts 44°
2026-05-04 07:36 58.05945 16.78987 36729 ft 487 kts 44°
2026-05-04 07:38 58.24714 17.16092 36767 ft 488 kts 45°
2026-05-04 07:38 58.29394 17.25451 36763 ft 489 kts 45°
2026-05-04 07:39 58.34048 17.34780 36763 ft 489 kts 45°
2026-05-04 07:39 58.38733 17.44214 36761 ft 490 kts 45°
2026-05-04 07:40 58.43412 17.53679 36776 ft 490 kts 45°
2026-05-04 07:40 58.48081 17.63162 36771 ft 490 kts 45°
2026-05-04 07:41 58.52755 17.72680 36766 ft 490 kts 45°
2026-05-04 07:41 58.56626 17.80596 36730 ft 490 kts 45°
2026-05-04 07:42 58.61281 17.90165 36743 ft 490 kts 45°
2026-05-04 07:42 58.65925 17.99742 36767 ft 490 kts 45°
2026-05-04 07:43 58.70571 18.09364 36759 ft 491 kts 45°
2026-05-04 07:43 58.75201 18.19009 36747 ft 491 kts 46°
2026-05-04 07:44 58.79830 18.28691 36744 ft 491 kts 46°
2026-05-04 07:44 58.84448 18.38381 36742 ft 490 kts 46°
2026-05-04 07:45 58.89062 18.48097 36760 ft 491 kts 46°
2026-05-04 07:45 58.93653 18.57815 36748 ft 491 kts 46°
2026-05-04 07:46 58.98272 18.67620 36740 ft 492 kts 46°
2026-05-04 07:46 59.02877 18.77435 36739 ft 492 kts 46°
2026-05-04 07:47 59.07467 18.87288 36739 ft 492 kts 46°
2026-05-04 07:49 59.25792 19.26985 36743 ft 493 kts 46°
2026-05-04 07:49 59.30374 19.37021 36745 ft 494 kts 47°
2026-05-04 07:50 59.34938 19.47092 36773 ft 494 kts 47°
2026-05-04 07:50 59.39503 19.57188 36765 ft 495 kts 47°
2026-05-04 07:51 59.44070 19.67304 36761 ft 494 kts 47°
2026-05-04 07:51 59.48597 19.77384 36758 ft 494 kts 47°
2026-05-04 07:52 59.53141 19.87554 36750 ft 495 kts 47°
2026-05-04 07:52 59.57679 19.97750 36747 ft 495 kts 47°
2026-05-04 07:54 59.75781 20.38896 36790 ft 495 kts 47°
2026-05-04 07:55 59.80283 20.49268 36773 ft 496 kts 47°
2026-05-04 07:55 59.84776 20.59667 36763 ft 496 kts 47°
2026-05-04 07:56 59.89271 20.70082 36746 ft 496 kts 47°
2026-05-04 07:56 59.93753 20.80528 36753 ft 496 kts 48°
2026-05-04 07:57 59.98195 20.90974 36759 ft 496 kts 48°
2026-05-04 07:57 60.00430 20.96232 36647 ft 498 kts 48°
2026-05-04 07:57 60.02675 21.01508 36226 ft 497 kts 47°
2026-05-04 07:58 60.04919 21.06787 35964 ft 499 kts 48°
2026-05-04 07:58 60.07169 21.12099 35714 ft 501 kts 48°
2026-05-04 07:58 60.09419 21.17438 35464 ft 502 kts 48°
2026-05-04 07:58 60.11677 21.22813 35218 ft 504 kts 48°
2026-05-04 07:59 60.13938 21.28213 34714 ft 508 kts 48°
2026-05-04 07:59 60.16239 21.33716 33574 ft 519 kts 49°
2026-05-04 07:59 60.18371 21.39631 32537 ft 525 kts 59°
2026-05-04 07:59 60.20030 21.46089 31979 ft 518 kts 68°
2026-05-04 08:00 60.21231 21.52906 31210 ft 514 kts 78°
2026-05-04 08:00 60.22017 21.59867 30590 ft 508 kts 82°
2026-05-04 08:00 60.22752 21.66799 29921 ft 505 kts 82°
2026-05-04 08:02 60.27633 22.14449 25164 ft 485 kts 82°
2026-05-04 08:02 60.28299 22.21084 24520 ft 481 kts 82°
2026-05-04 08:02 60.28954 22.27663 23881 ft 477 kts 82°
2026-05-04 08:03 60.29603 22.34205 23230 ft 473 kts 82°
2026-05-04 08:03 60.30243 22.40678 22561 ft 468 kts 82°
2026-05-04 08:03 60.30872 22.47067 22005 ft 462 kts 82°
2026-05-04 08:03 60.31490 22.53394 21458 ft 458 kts 82°
2026-05-04 08:04 60.32098 22.59674 20909 ft 454 kts 82°
2026-05-04 08:04 60.32698 22.65904 20385 ft 451 kts 82°
2026-05-04 08:04 60.33292 22.72096 19875 ft 447 kts 82°
2026-05-04 08:04 60.33879 22.78249 19406 ft 445 kts 82°
2026-05-04 08:05 60.34453 22.84286 18948 ft 442 kts 82°
2026-05-04 08:05 60.35028 22.90364 18474 ft 439 kts 82°
2026-05-04 08:05 60.35596 22.96393 17976 ft 436 kts 82°
2026-05-04 08:05 60.36157 23.02387 17459 ft 432 kts 82°
2026-05-04 08:06 60.36711 23.08356 16951 ft 429 kts 82°
2026-05-04 08:06 60.37256 23.14276 16467 ft 426 kts 82°
2026-05-04 08:06 60.37794 23.20144 15952 ft 423 kts 82°
2026-05-04 08:06 60.38327 23.25970 15437 ft 420 kts 82°
2026-05-04 08:08 60.41871 23.65393 11733 ft 392 kts 83°
2026-05-04 08:08 60.42342 23.70736 11502 ft 377 kts 83°
2026-05-04 08:10 60.44975 24.07390 9252 ft 306 kts 89°
2026-05-04 08:11 60.45200 24.11608 8830 ft 304 kts 88°
2026-05-04 08:11 60.45665 24.20041 7989 ft 299 kts 87°
2026-05-04 08:11 60.45899 24.24221 7564 ft 297 kts 86°
2026-05-04 08:12 60.46132 24.28375 7150 ft 296 kts 86°
2026-05-04 08:12 60.46362 24.32486 6888 ft 288 kts 86°
2026-05-04 08:12 60.46449 24.36467 6769 ft 277 kts 94°
2026-05-04 08:12 60.46403 24.40326 6644 ft 271 kts 95°
2026-05-04 08:13 60.46346 24.44122 6518 ft 267 kts 95°
2026-05-04 08:13 60.46286 24.47802 6293 ft 257 kts 96°
2026-05-04 08:13 60.46223 24.51397 5708 ft 253 kts 95°
2026-05-04 08:13 60.46161 24.54944 5096 ft 250 kts 95°
2026-05-04 08:14 60.46099 24.58456 4478 ft 248 kts 95°
2026-05-04 08:14 60.46037 24.61914 4128 ft 247 kts 94°
2026-05-04 08:14 60.45974 24.65379 3838 ft 244 kts 94°
2026-05-04 08:16 60.43992 24.85155 2625 ft 192 kts 156°
2026-05-04 08:16 60.42801 24.86379 2383 ft 192 kts 156°
2026-05-04 08:16 60.41611 24.87607 2120 ft 191 kts 156°
2026-05-04 08:17 60.40433 24.88823 1871 ft 188 kts 156°
2026-05-04 08:17 60.39293 24.90001 1606 ft 178 kts 156°
2026-05-04 08:17 60.38246 24.91082 1376 ft 161 kts 156°
2026-05-04 08:17 60.37296 24.92061 1151 ft 146 kts 156°
2026-05-04 08:19 60.31664 24.97848 154 ft 63 kts 153°
2026-05-04 08:19 60.31489 24.98021 156 ft 10 kts 165°
2026-05-04 08:20 60.31437 24.97957 157 ft 10 kts 242°
2026-05-04 08:20 60.31409 24.97809 161 ft 10 kts 270°
2026-05-04 08:20 60.31452 24.97729 161 ft 9 kts 332°
2026-05-04 08:20 60.31504 24.97674 161 ft 8 kts 333°
2026-05-04 08:21 60.31551 24.97625 162 ft 7 kts 333°
2026-05-04 08:21 60.31593 24.97582 162 ft 6 kts 333°
2026-05-04 08:21 60.31633 24.97513 162 ft 8 kts 285°
2026-05-04 08:21 60.31636 24.97405 163 ft 7 kts 299°
2026-05-04 08:22 60.31702 24.97321 163 ft 17 kts 332°
2026-05-04 08:22 60.31796 24.97224 164 ft 10 kts 333°
2026-05-04 08:24 60.31787 24.97086 164 ft 0 kts 243°